Vertical_Velocity
1 1 0 -0 -0 0 0 1 0 -0 -0 -0 0 0 -1 -2 -2 -1 -0 0 0 -0 -1 -1 -1 -2 -3 -1 7 12 11 2 0 1 2 1 -1 -2 -2 -1 -0 2 4 6 7 8 8 6 7 6 3 3 2 2 3 6 7 7 7 8 10 12 12 11 12 10 6 1 1
0 -0 -1 -1 -1 -1 -1 -0 -1 -1 -1 -2 -2 -2 -2 -2 -2 -1 -1 -0 0 0 0 0 -1 -1 -0 1 9 14 14 7 2 1 1 2 1 1 0 -0 -2 -2 -2 -0 1 2 5 7 7 5 2 -2 -4 -4 -3 0 3 5 7 8 9 8 6 3 5 4 2 0 1
1 1 0 -0 -1 -1 -2 -2 -3 -3 -3 -4 -4 -3 -2 -2 -1 -1 -1 -1 -0 0 1 1 -0 0 2 3 6 10 13 12 7 4 2 2 3 3 4 4 4 3 1 0 -1 -1 -1 1 2 3 2 -1 -3 -3 -2 -1 0 1 2 3 5 6 5 5 7 6 3 2 6
0 0 0 -0 -0 -0 -0 -0 -1 -1 -2 -4 -4 -4 -3 -2 -2 -1 -1 -0 0 0 -0 -1 -1 1 3 4 3 4 6 10 11 8 5 1 1 1 2 3 3 3 3 3 2 2 2 2 3 5 7 6 5 3 2 2 2 0 -2 -1 1 1 2 3 4 5 6 9 11
-1 -0 -0 -0 -0 -0 -0 -0 -0 -0 -0 -1 -2 -3 -3 -3 -2 -1 -1 0 0 -0 -2 -4 -2 1 3 2 0 0 2 6 11 11 9 5 3 3 3 3 2 2 2 2 3 4 5 6 6 8 9 8 9 9 9 8 6 4 2 -1 -2 -2 -1 -0 1 2 3 5 7
-2 -1 -1 -0 -1 -1 -1 -1 -1 -0 0 -0 -1 -2 -2 -3 -3 -2 -1 0 -0 -2 -4 -4 -2 0 0 -1 0 2 4 6 10 14 16 15 12 11 10 8 5 2 1 2 3 4 5 6 5 4 3 4 4 1 -3 -5 1 4 4 2 3 1 0 1 2 2 3 1 2
-1 -1 -1 -1 -1 -1 -1 -1 -2 -1 -1 -1 -1 -1 -2 -2 -2 -1 0 0 -1 -3 -5 -5 -2 -2 -2 -1 2 3 3 4 10 17 21 22 15 10 6 5 3 2 1 1 2 3 4 4 3 2 2 1 -0 -3 -5 -6 -4 -2 0 4 8 10 9 5 4 5 4 1 1
-1 -1 -1 -1 -1 -1 -1 -2 -2 -3 -2 -2 -1 -0 0 1 2 2 1 -2 -3 -5 -6 -5 -3 -2 -1 1 3 3 3 6 13 18 20 16 8 3 1 1 1 0 -0 -0 1 1 2 2 3 2 2 0 -0 0 1 2 2 3 5 9 8 9 10 10 10 9 8 6 5
-4 -5 -5 -5 -4 -4 -3 -3 -2 -3 -3 -2 -1 -0 1 3 3 2 0 -1 -2 -2 -3 -3 -2 -0 1 2 3 4 7 12 13 12 8 3 0 -1 -0 0 -0 -1 -1 -0 0 -0 -1 -1 1 2 2 0 -1 -1 -1 1 3 5 7 8 3 0 -1 -1 -3 -1 3 6 6
-4 -4 -4 -3 -2 -2 -2 -3 -2 -2 -2 -2 -1 -0 1 3 1 -0 -1 -1 0 -0 -1 -2 -0 1 1 0 2 6 10 12 8 5 2 0 0 1 0 -0 -0 0 0 0 -1 -2 -3 -2 2 3 2 0 -1 -2 -2 -1 2 5 5 2 1 1 0 -1 -3 -3 -1 -1 -1
-1 -1 1 2 3 2 1 -0 1 1 0 -0 0 1 1 1 -1 -2 -2 -1 -0 -0 -1 -2 -2 -1 -0 2 7 10 10 6 3 2 2 1 1 1 0 -0 1 2 2 1 -2 -3 -3 1 7 9 8 4 1 -0 -1 -1 1 1 1 -1 -1 -1 -1 0 2 4 4 2 -1
-0 1 2 4 4 3 3 3 5 5 4 3 2 2 1 -1 -4 -4 -4 -3 -2 -1 -1 -0 0 3 7 12 12 9 4 1 0 1 1 2 1 1 0 1 2 2 1 0 -2 -2 -0 5 9 10 9 7 5 3 2 2 2 1 -0 -1 -1 -2 -2 -2 0 4 7 5 2
1 1 2 3 3 3 4 5 6 6 6 5 2 -0 -3 -5 -7 -7 -6 -4 -3 -1 1 6 9 12 13 12 7 2 -1 -2 -1 1 4 6 4 2 0 0 1 1 0 -0 0 2 4 7 8 7 6 6 6 5 5 5 6 6 5 5 3 2 -0 -1 0 4 6 5 4
4 2 2 2 3 4 5 5 5 5 4 1 -2 -4 -5 -6 -6 -5 -4 -3 -2 -0 3 8 10 9 6 2 -1 -2 -3 -3 -0 3 5 4 1 -1 -1 -1 -0 0 1 2 4 6 8 8 5 3 2 3 6 6 6 6 7 8 9 10 9 6 3 -0 -0 2 4 5 5
9 6 3 2 3 4 5 5 4 2 1 -2 -2 -2 -1 -1 -1 -1 -1 -2 -2 0 3 5 4 3 1 -0 -2 -2 -2 -2 -1 -0 -0 -1 -2 -2 -2 -1 -1 1 3 5 6 7 8 7 3 -0 -1 0 4 6 7 6 6 7 8 10 11 10 7 2 0 -0 1 3 3
9 7 5 3 3 3 4 4 3 2 1 1 2 4 5 5 4 3 1 -0 -0 1 2 1 1 1 0 0 -0 -0 -0 -1 -0 -0 -0 -0 -1 -1 -2 -2 -1 1 4 6 6 7 7 6 3 0 -2 -3 1 4 6 6 6 5 4 5 8 10 10 8 5 2 2 2 3
5 5 5 3 3 3 2 2 3 3 3 3 4 4 5 5 4 3 2 1 1 1 0 -2 -2 -1 -1 -2 -2 -2 -1 -1 -0 1 1 2 1 0 -1 -2 -1 1 3 4 4 5 6 7 5 3 0 -2 -1 1 4 6 6 5 4 1 2 5 9 12 10 8 6 4 4
2 3 4 4 3 2 2 2 2 3 3 3 3 3 2 2 1 1 1 3 3 1 -1 -3 -3 -3 -3 -4 -4 -3 -2 -2 -1 -0 1 1 2 2 2 1 2 2 2 2 2 2 4 5 6 6 5 3 2 2 3 5 6 6 5 5 3 2 3 7 10 10 10 7 5
1 2 3 4 4 3 3 2 1 1 0 0 0 -0 -1 -1 -1 0 2 4 4 2 1 -1 -1 -1 -1 -1 -1 -1 -1 -1 -1 -0 1 2 3 4 6 8 8 7 6 5 3 3 3 5 5 6 6 6 6 5 5 5 5 5 5 7 6 4 2 2 4 6 7 6 5
1 1 2 2 3 4 4 3 2 1 -0 -1 -0 0 1 2 3 4 5 5 5 3 3 2 2 3 5 6 6 5 3 1 2 3 4 6 7 7 8 8 9 9 8 7 6 5 6 6 6 6 6 7 8 8 7 7 6 5 5 5 7 7 6 5 3 3 4 3 2
1 1 1 1 1 2 3 4 4 4 4 3 3 4 5 6 8 8 8 7 6 5 5 4 5 6 8 9 10 9 8 6 6 6 7 7 7 6 6 5 5 6 6 5 4 4 4 4 3 4 5 6 7 9 9 9 8 8 8 7 9 10 10 9 8 7 6 5 4
1 0 0 0 -0 -1 -1 0 1 1 0 -1 -2 -1 -0 1 2 2 3 3 4 5 5 6 6 7 7 8 8 8 8 7 6 5 4 4 4 3 3 3 3 3 4 3 3 2 2 1 1 2 2 1 3 4 5 6 8 10 11 11 12 12 12 13 14 14 12 11 11
1 0 0 -0 -1 -3 -4 -5 -5 -5 -6 -7 -3 -0 1 1 1 1 0 -0 -1 -1 -0 1 1 2 2 1 1 1 1 -0 -1 -1 -1 0 1 2 2 3 3 2 2 1 1 1 1 1 1 1 0 -0 -0 -0 0 1 2 3 4 6 7 7 9 11 12 14 15 18 18
1 0 0 0 -0 -1 -2 -4 -5 -5 -4 -2 1 1 1 0 -0 -0 -1 -2 -2 -3 -4 -5 -5 -5 -4 -4 -3 -3 -3 -4 -4 -4 -4 -4 -4 -3 -3 -2 -2 -1 -1 -1 -0 -0 0 0 0 0 0 -0 -1 -1 -1 -1 -1 -0 -0 -0 -0 0 1 3 4 5 8 13 15
0 0 0 1 0 1 1 1 0 0 1 1 0 -0 -1 -2 -2 -2 -3 -3 -3 -4 -4 -4 -4 -4 -5 -6 -5 -5 -5 -4 -4 -3 -3 -3 -3 -3 -3 -4 -4 -5 -5 -4 -4 -3 -2 -2 -1 -1 -0 0 -0 -1 -2 -4 -3 -3 -3 -2 -2 -2 -2 -2 -2 -1 1 4 5
0 1 1 1 1 1 1 1 1 1 1 1 0 -0 -1 -1 -2 -2 -2 -2 -2 -2 -2 -3 -3 -3 -4 -5 -7 -7 -6 -5 -3 -2 -1 -1 -1 -1 -1 -0 -1 -1 -2 -3 -4 -5 -5 -5 -5 -4 -4 -3 -2 -1 -1 -2 -4 -5 -6 -6 -5 -3 -2 -1 -2 -2 -2 -2 -1
1 1 1 1 1 1 1 1 1 1 1 1 1 0 0 -0 -0 -0 -0 -0 -1 -1 -1 -1 -1 -1 -1 -1 -2 -3 -2 -1 -0 0 0 0 0 0 -0 0 0 0 -0 -1 -2 -3 -3 -3 -3 -3 -3 -3 -3 -3 -2 -1 -0 -1 -2 -5 -7 -7 -6 -4 -2 -2 -2 -2 -2
1 1 1 1 1 1 1 1 1 1 1 1 1 1 1 1 1 1 1 1 1 1 1 1 1 1 1 1 1 1 1 2 2 1 1 1 1 0 0 1 1 1 1 1 1 1 1 1 0 0 0 0 0 0 1 1 1 1 2 2 -0 -3 -5 -7 -6 -4 -3 -3 -2
1 1 1 1 1 1 1 1 1 1 1 1 1 1 1 1 1 1 2 2 2 2 2 2 2 2 2 2 2 2 2 2 2 1 1 1 1 1 1 1 1 1 1 1 1 1 0 -0 -0 0 1 1 1 1 1 1 1 1 1 1 2 2 1 -0 -3 -6 -7 -6 -5
1 1 1 1 1 0 1 1 0 0 0 0 0 1 1 1 1 1 2 2 2 2 2 2 2 2 2 2 1 1 1 1 2 2 2 1 1 1 1 1 2 2 2 2 2 2 1 1 -0 -0 0 1 1 1 2 2 2 2 1 1 2 2 2 2 2 1 -0 -2 -3
1 1 1 1 1 1 1 1 1 0 0 0 0 0 1 1 1 1 1 1 1 1 1 1 1 1 1 1 1 1 1 1 1 1 2 2 1 1 1 1 1 1 2 2 2 2 2 2 1 0 -0 0 0 1 1 2 2 2 2 3 2 2 2 2 2 2 2 2 2
1 2 2 2 2 1 1 1 1 1 1 1 1 1 1 1 1 1 1 1 1 1 1 1 2 1 1 1 1 1 1 1 1 1 1 1 1 1 1 1 1 1 1 1 2 2 3 3 2 1 -0 -0 -0 0 0 1 1 2 2 3 3 3 3 3 2 2 2 2 2
2 2 2 2 2 2 2 2 2 1 1 1 1 1 1 1 1 1 1 1 1 1 1 2 2 2 2 1 1 1 1 1 1 1 1 1 1 1 1 1 1 1 1 1 1 2 3 3 3 2 1 -0 0 -0 -0 0 0 1 1 2 2 2 3 2 2 2 2 2 2
1 1 1 1 1 1 1 1 1 1 1 1 1 1 1 1 1 1 1 1 1 1 1 1 1 1 1 1 0 0 0 0 0 0 0 0 1 1 1 1 1 1 1 1 1 2 2 3 4 3 2 1 1 1 0 0 0 0 1 1 1 1 2 2 2 1 2 2 2
1 1 1 1 1 1 1 1 1 0 0 0 0 0 0 -0 -0 -0 -0 -0 -0 -1 -1 -1 -0 -0 -0 -0 0 0 0 0 1 1 1 1 1 1 1 1 1 2 2 2 2 2 2 3 4 5 4 3 3 3 2 2 2 1 1 1 1 1 1 1 1 1 1 1 2
1 1 1 1 1 1 1 1 1 0 0 0 0 0 0 -0 -0 -0 -0 -0 -0 -0 -0 -0 0 0 0 1 1 1 1 1 1 1 1 2 1 1 1 1 1 1 1 2 1 1 1 2 3 4 5 4 4 4 4 4 4 4 3 3 3 3 3 3 2 2 2 2 2
2 2 2 2 1 1 1 1 1 1 1 1 1 1 1 1 1 1 1 1 1 1 1 1 1 1 1 1 1 1 1 1 0 0 -0 -0 -0 -0 -1 -1 -1 -1 -1 -1 -2 -2 -2 -2 -2 -1 0 1 1 1 2 2 3 3 4 4 4 4 5 5 5 4 4 3 3
2 2 2 2 2 2 2 2 2 2 2 2 2 2 2 2 2 2 2 2 2 2 2 1 1 0 -0 -1 -1 -2 -2 -3 -3 -4 -4 -4 -4 -5 -5 -5 -5 -5 -5 -6 -6 -6 -7 -7 -7 -7 -6 -6 -6 -5 -5 -4 -3 -2 -1 0 1 2 2 3 4 4 4 4 5
2 2 2 2 2 2 2 2 2 2 3 2 2 2 2 2 2 1 1 0 -0 -1 -1 -2 -2 -3 -4 -4 -5 -5 -6 -6 -7 -7 -7 -7 -7 -7 -8 -8 -8 -8 -8 -8 -8 -9 -9 -9 -9 -10 -10 -10 -10 -10 -10 -10 -9 -9 -8 -7 -6 -5 -4 -3 -2 -1 0 1 2
1 1 1 1 1 1 1 1 1 1 1 1 1 0 -0 -1 -1 -2 -3 -4 -4 -5 -5 -6 -6 -6 -7 -7 -7 -7 -7 -7 -7 -7 -7 -7 -7 -7 -7 -7 -7 -7 -7 -7 -7 -7 -8 -8 -8 -9 -9 -9 -9 -10 -11 -11 -11 -11 -11 -11 -11 -11 -10 -9 -8 -8 -7 -5 -4
-0 -0 -0 -0 -0 -0 -0 -1 -1 -1 -1 -2 -2 -3 -4 -5 -5 -6 -6 -7 -7 -7 -7 -7 -7 -7 -7 -7 -7 -6 -6 -5 -5 -5 -5 -5 -5 -5 -5 -5 -5 -5 -4 -5 -5 -5 -5 -5 -6 -6 -6 -6 -6 -7 -7 -8 -8 -8 -8 -9 -10 -11 -11 -11 -11 -11 -11 -11 -10
Height
3004 3005 3005 3006 3006 3006 3006 3006 3006 3007 3007 3007 3007 3007 3008 3008 3008 3009 3009 3010 3010 3010 3011 3011 3013 3014 3014 3015 3017 3019 3021 3021 3021 3021 3021 3022 3022 3023 3024 3026 3027 3028 3030 3032 3033 3034 3035 3036 3037 3037 3038 3039 3040 3041 3042 3043 3044 3045 3045 3046 3046 3047 3047 3047 3048 3048 3049 3049 3050
3004 3004 3004 3005 3005 3005 3005 3005 3006 3006 3006 3006 3006 3006 3006 3007 3007 3007 3008 3008 3008 3009 3010 3010 3011 3012 3012 3013 3015 3017 3019 3019 3019 3019 3020 3021 3021 3021 3022 3023 3024 3025 3026 3028 3029 3031 3032 3034 3035 3035 3034 3035 3036 3037 3038 3039 3040 3041 3041 3042 3043 3043 3044 3044 3045 3045 3046 3046 3047
3003 3003 3004 3004 3004 3004 3004 3004 3004 3005 3005 3005 3005 3006 3006 3006 3006 3006 3006 3007 3007 3008 3008 3009 3010 3010 3011 3011 3012 3014 3016 3017 3018 3018 3018 3019 3020 3020 3021 3022 3023 3024 3024 3025 3026 3027 3028 3030 3031 3031 3032 3033 3033 3034 3035 3036 3037 3037 3038 3038 3039 3040 3041 3041 3041 3042 3042 3043 3044
3002 3003 3003 3003 3003 3003 3003 3003 3003 3003 3004 3004 3004 3004 3005 3005 3005 3005 3006 3006 3006 3006 3007 3008 3009 3009 3009 3010 3011 3012 3014 3016 3016 3017 3017 3017 3018 3019 3020 3020 3021 3022 3023 3024 3025 3025 3026 3027 3028 3029 3030 3031 3031 3032 3033 3034 3034 3034 3035 3035 3036 3036 3037 3038 3038 3039 3040 3040 3041
3002 3002 3002 3002 3002 3002 3002 3002 3002 3002 3002 3002 3003 3003 3003 3004 3004 3004 3004 3005 3005 3006 3006 3007 3007 3007 3008 3009 3011 3011 3012 3013 3015 3016 3016 3016 3016 3017 3018 3019 3019 3020 3021 3022 3023 3024 3025 3026 3027 3027 3028 3029 3030 3031 3031 3031 3032 3032 3032 3032 3033 3033 3034 3035 3035 3036 3036 3037 3037
3001 3001 3001 3001 3001 3001 3001 3001 3001 3001 3001 3001 3001 3001 3001 3002 3002 3002 3003 3003 3004 3004 3005 3005 3006 3006 3007 3008 3009 3010 3010 3011 3012 3014 3015 3016 3016 3016 3017 3018 3018 3019 3020 3021 3021 3022 3023 3023 3024 3024 3024 3025 3026 3026 3027 3027 3028 3028 3029 3030 3031 3031 3032 3032 3032 3033 3034 3034 3034
3000 3000 3000 3000 3000 2999 2999 2999 2999 2999 2999 2999 3000 3000 3000 3001 3001 3001 3002 3002 3002 3003 3003 3004 3004 3005 3006 3007 3007 3008 3008 3009 3011 3012 3013 3014 3014 3015 3015 3015 3016 3017 3018 3019 3019 3020 3020 3021 3021 3021 3021 3021 3021 3021 3021 3022 3023 3024 3026 3027 3029 3029 3029 3030 3030 3031 3031 3031 3031
2999 2999 2999 2999 2999 2998 2998 2998 2998 2998 2998 2998 2998 2999 2999 3000 3000 3001 3001 3001 3001 3002 3002 3003 3004 3005 3005 3005 3005 3006 3007 3007 3009 3010 3011 3011 3011 3012 3013 3013 3014 3015 3016 3016 3017 3017 3017 3018 3018 3019 3019 3019 3020 3020 3021 3021 3022 3022 3024 3025 3026 3028 3029 3029 3029 3029 3029 3029 3028
2998 2998 2998 2998 2998 2997 2997 2997 2997 2997 2997 2998 2998 2998 2999 3000 3000 3000 3000 3000 3001 3002 3002 3003 3003 3004 3004 3004 3004 3005 3006 3006 3007 3007 3008 3008 3009 3010 3010 3011 3012 3013 3013 3014 3015 3015 3015 3016 3016 3017 3017 3017 3017 3018 3018 3019 3020 3021 3021 3021 3021 3021 3021 3022 3023 3024 3025 3026 3026
2997 2997 2997 2997 2997 2997 2997 2997 2997 2997 2997 2997 2997 2998 2998 2999 2999 2999 3000 3000 3001 3002 3002 3002 3002 3002 3002 3002 3003 3004 3005 3005 3006 3006 3006 3007 3007 3008 3008 3009 3010 3011 3011 3012 3012 3013 3013 3015 3015 3015 3015 3016 3016 3016 3016 3017 3017 3017 3017 3017 3018 3019 3019 3019 3019 3020 3020 3020 3022
2997 2997 2997 2997 2997 2997 2997 2997 2996 2996 2996 2997 2997 2997 2998 2999 2999 2999 3000 3001 3001 3001 3002 3002 3002 3001 3001 3001 3002 3003 3004 3004 3004 3005 3005 3005 3006 3006 3007 3007 3008 3009 3010 3010 3011 3011 3012 3013 3013 3013 3013 3014 3014 3015 3014 3014 3014 3014 3014 3015 3015 3016 3017 3017 3018 3018 3018 3018 3018
2997 2997 2997 2997 2997 2997 2997 2997 2997 2997 2996 2996 2997 2997 2998 2999 3000 3000 3001 3001 3001 3001 3001 3001 3000 3000 3000 3001 3002 3002 3003 3003 3003 3004 3004 3005 3005 3005 3006 3006 3006 3007 3007 3008 3009 3010 3010 3011 3011 3011 3011 3011 3012 3012 3012 3012 3012 3012 3012 3012 3013 3013 3014 3014 3014 3015 3015 3016 3016
2997 2997 2997 2997 2997 2997 2997 2997 2997 2997 2997 2997 2997 2998 2999 3000 3000 3001 3001 3001 3000 3000 2999 2998 2998 2998 2999 3000 3001 3001 3002 3002 3003 3003 3003 3004 3004 3004 3004 3005 3005 3005 3006 3006 3007 3008 3008 3008 3008 3008 3008 3009 3009 3010 3010 3010 3010 3010 3010 3010 3010 3011 3011 3011 3011 3012 3012 3013 3013
2998 2998 2998 2998 2998 2998 2997 2997 2997 2997 2997 2997 2998 2998 2999 2999 2999 2999 2999 2999 2999 2999 2998 2998 2998 2998 2999 2999 3000 3001 3001 3001 3001 3001 3001 3001 3002 3002 3003 3003 3003 3003 3004 3004 3005 3005 3005 3005 3006 3006 3006 3006 3007 3007 3007 3008 3007 3007 3007 3007 3007 3008 3008 3008 3009 3009 3009 3010 3010
2998 2998 2999 2999 2999 2998 2998 2997 2997 2997 2997 2998 2998 2998 2998 2997 2997 2997 2998 2998 2998 2998 2998 2998 2998 2998 2998 2998 2999 2999 3000 3000 2999 2999 2999 3000 3001 3001 3001 3001 3001 3001 3001 3002 3002 3002 3003 3003 3003 3003 3004 3004 3005 3005 3005 3005 3005 3005 3005 3005 3005 3005 3005 3005 3006 3006 3006 3006 3006
3000 2999 2999 2999 2999 2998 2998 2998 2997 2997 2997 2998 2998 2998 2998 2997 2997 2997 2997 2998 2997 2997 2997 2997 2997 2997 2997 2997 2997 2998 2998 2998 2998 2998 2998 2998 2999 2999 3000 3000 2999 2999 2999 3000 3000 3000 3000 3001 3001 3001 3001 3002 3002 3003 3003 3003 3002 3002 3002 3002 3002 3003 3002 3002 3003 3003 3003 3004 3004
3000 2999 2999 2998 2998 2998 2998 2997 2997 2997 2997 2997 2997 2997 2997 2997 2997 2997 2997 2997 2997 2997 2996 2996 2996 2996 2996 2996 2996 2996 2996 2996 2996 2996 2996 2996 2997 2997 2997 2997 2997 2997 2997 2998 2998 2998 2998 2998 2999 2999 3000 3000 3001 3001 3001 3001 3000 3000 3000 3000 3000 3000 3000 3000 3000 3000 3000 3001 3001
3000 2999 2998 2998 2997 2997 2997 2997 2997 2997 2997 2997 2997 2997 2997 2997 2997 2997 2997 2997 2996 2996 2996 2996 2996 2996 2996 2996 2995 2995 2995 2995 2995 2995 2995 2995 2995 2996 2996 2996 2996 2996 2996 2996 2996 2996 2996 2996 2996 2997 2997 2998 2998 2998 2998 2998 2998 2998 2998 2997 2997 2997 2997 2997 2997 2997 2997 2997 2997
3000 3000 2999 2998 2997 2996 2996 2996 2996 2996 2996 2996 2997 2996 2996 2996 2996 2996 2996 2996 2995 2995 2995 2995 2995 2995 2994 2994 2994 2994 2994 2994 2994 2994 2994 2994 2994 2994 2994 2994 2994 2994 2994 2994 2994 2994 2994 2995 2995 2995 2995 2995 2996 2996 2996 2996 2996 2996 2995 2995 2995 2995 2995 2994 2994 2994 2994 2995 2994
3001 3000 2999 2998 2997 2997 2996 2996 2996 2996 2996 2997 2997 2997 2996 2996 2996 2996 2996 2995 2995 2994 2994 2994 2994 2994 2993 2993 2993 2992 2992 2992 2992 2992 2992 2991 2991 2991 2991 2991 2991 2991 2991 2991 2992 2992 2992 2993 2993 2993 2993 2993 2993 2993 2993 2993 2993 2993 2993 2993 2992 2992 2992 2992 2991 2991 2991 2991 2991
3001 3000 3000 2999 2998 2997 2997 2996 2996 2996 2996 2996 2996 2996 2996 2996 2995 2994 2994 2993 2993 2993 2993 2993 2993 2993 2992 2992 2991 2991 2991 2991 2991 2991 2990 2990 2989 2989 2989 2989 2989 2989 2989 2989 2989 2989 2990 2990 2990 2991 2991 2991 2991 2991 2991 2991 2991 2990 2990 2990 2990 2990 2990 2989 2989 2988 2988 2988 2988
3000 3000 2999 2999 2998 2998 2997 2996 2996 2996 2996 2995 2995 2995 2995 2994 2994 2993 2992 2992 2992 2992 2992 2992 2992 2991 2991 2991 2990 2990 2990 2990 2990 2989 2989 2989 2989 2989 2989 2989 2989 2988 2988 2988 2988 2988 2988 2988 2988 2988 2988 2988 2989 2989 2989 2989 2989 2988 2988 2987 2987 2987 2987 2986 2986 2985 2985 2985 2985
3000 3000 2999 2999 2998 2998 2997 2996 2996 2995 2995 2994 2994 2994 2993 2993 2992 2992 2992 2991 2991 2991 2991 2990 2990 2989 2989 2989 2989 2989 2989 2989 2989 2989 2988 2988 2988 2988 2988 2988 2988 2988 2988 2988 2988 2988 2988 2987 2987 2987 2986 2986 2986 2986 2986 2986 2986 2986 2985 2985 2984 2984 2984 2983 2982 2982 2981 2981 2981
3001 3000 2999 2999 2998 2998 2997 2996 2996 2995 2995 2994 2993 2993 2992 2992 2991 2991 2991 2991 2991 2991 2990 2990 2989 2988 2988 2988 2988 2988 2988 2988 2988 2988 2988 2988 2987 2987 2987 2987 2987 2987 2987 2987 2987 2987 2987 2986 2986 2986 2986 2985 2985 2984 2983 2983 2983 2983 2982 2982 2982 2981 2981 2981 2980 2979 2978 2978 2978
3001 3000 2999 2999 2998 2998 2997 2997 2996 2996 2995 2994 2994 2993 2992 2992 2992 2991 2991 2991 2991 2990 2990 2990 2989 2989 2988 2988 2987 2987 2987 2987 2987 2988 2988 2987 2987 2987 2987 2987 2986 2986 2986 2986 2985 2985 2985 2985 2985 2984 2984 2984 2983 2982 2982 2981 2980 2980 2980 2979 2979 2979 2979 2978 2977 2976 2976 2975 2976
3001 3000 2999 2999 2998 2998 2997 2996 2996 2996 2995 2994 2994 2993 2993 2992 2992 2991 2991 2991 2990 2990 2990 2989 2989 2989 2988 2988 2987 2987 2987 2987 2987 2987 2987 2987 2986 2986 2986 2986 2985 2985 2985 2984 2984 2983 2983 2982 2982 2982 2981 2981 2981 2981 2980 2979 2978 2977 2976 2976 2976 2976 2975 2975 2975 2974 2973 2973 2973
3001 3000 2999 2998 2998 2997 2997 2996 2996 2995 2995 2994 2994 2993 2993 2992 2992 2991 2991 2991 2990 2990 2989 2989 2989 2988 2988 2988 2987 2987 2987 2986 2986 2986 2986 2986 2985 2985 2985 2984 2984 2984 2983 2983 2982 2982 2981 2981 2980 2980 2980 2979 2979 2978 2978 2977 2976 2975 2974 2973 2973 2972 2971 2971 2971 2971 2971 2971 2970
3000 2999 2999 2998 2997 2997 2996 2996 2995 2995 2994 2994 2993 2993 2992 2992 2991 2991 2991 2990 2990 2989 2989 2988 2988 2988 2987 2987 2987 2986 2986 2986 2985 2985 2985 2984 2984 2983 2983 2983 2982 2982 2982 2981 2981 2980 2980 2979 2979 2978 2978 2977 2976 2976 2975 2975 2974 2973 2972 2971 2970 2970 2969 2968 2968 2967 2967 2967 2967
3000 2999 2998 2998 2997 2996 2996 2995 2995 2994 2994 2993 2992 2992 2991 2991 2991 2990 2990 2989 2989 2988 2988 2988 2987 2987 2987 2986 2986 2986 2985 2985 2984 2984 2983 2983 2982 2981 2981 2981 2981 2980 2980 2980 2979 2979 2978 2977 2977 2976 2976 2975 2974 2974 2973 2972 2971 2971 2970 2969 2968 2967 2967 2966 2966 2965 2965 2964 2964
3000 2999 2998 2998 2997 2996 2996 2995 2994 2994 2993 2992 2992 2991 2991 2990 2990 2989 2989 2989 2988 2988 2987 2987 2986 2986 2986 2985 2985 2984 2984 2983 2983 2982 2982 2981 2981 2980 2979 2979 2979 2978 2978 2977 2977 2976 2976 2975 2974 2974 2973 2972 2972 2971 2970 2970 2969 2968 2967 2967 2966 2965 2964 2964 2963 2963 2963 2962 2962
3000 2999 2998 2998 2997 2996 2996 2995 2994 2994 2993 2992 2992 2991 2991 2990 2990 2989 2988 2988 2987 2987 2986 2986 2985 2985 2984 2983 2983 2982 2982 2981 2981 2980 2980 2979 2979 2978 2978 2977 2977 2976 2976 2975 2975 2974 2974 2973 2972 2971 2970 2970 2969 2968 2967 2966 2966 2965 2964 2964 2963 2962 2961 2961 2960 2960 2959 2959 2958
3000 2999 2998 2998 2997 2996 2996 2995 2994 2993 2993 2992 2991 2991 2990 2990 2989 2988 2988 2987 2987 2986 2986 2985 2984 2984 2983 2982 2981 2981 2980 2980 2979 2978 2978 2978 2977 2976 2976 2975 2975 2974 2973 2973 2972 2972 2971 2971 2970 2969 2968 2967 2966 2965 2964 2964 2963 2962 2961 2960 2960 2959 2958 2957 2957 2956 2956 2955 2955
3000 2999 2998 2997 2997 2996 2995 2995 2994 2993 2993 2992 2991 2991 2990 2989 2989 2988 2987 2987 2986 2986 2985 2984 2984 2983 2982 2981 2981 2980 2979 2978 2978 2977 2976 2976 2976 2975 2974 2973 2972 2972 2971 2971 2970 2969 2969 2968 2967 2966 2965 2964 2963 2962 2961 2960 2960 2959 2958 2957 2956 2955 2955 2954 2953 2952 2952 2951 2951
3000 2999 2998 2997 2996 2996 2995 2994 2994 2993 2992 2991 2991 2990 2990 2989 2988 2987 2987 2986 2986 2985 2984 2984 2983 2982 2981 2981 2980 2979 2978 2978 2977 2976 2975 2975 2974 2973 2972 2971 2971 2970 2969 2968 2967 2967 2966 2966 2965 2964 2963 2961 2960 2959 2958 2957 2956 2956 2955 2954 2953 2952 2951 2950 2949 2948 2948 2947 2946
2999 2999 2998 2997 2996 2996 2995 2994 2993 2992 2992 2991 2991 2990 2989 2988 2988 2987 2986 2986 2985 2984 2983 2983 2982 2981 2981 2980 2979 2978 2977 2976 2976 2975 2974 2973 2972 2971 2971 2970 2968 2967 2967 2966 2965 2964 2963 2963 2962 2961 2961 2959 2958 2957 2956 2955 2953 2952 2951 2951 2950 2948 2947 2946 2946 2945 2944 2943 2942
2999 2998 2997 2996 2996 2995 2994 2994 2993 2992 2991 2991 2990 2989 2988 2988 2987 2986 2985 2985 2984 2983 2982 2981 2981 2980 2979 2978 2978 2977 2976 2975 2974 2973 2972 2971 2971 2970 2969 2967 2966 2965 2964 2963 2962 2961 2960 2959 2959 2958 2957 2956 2955 2954 2952 2951 2951 2949 2948 2947 2946 2946 2945 2944 2943 2941 2941 2940 2939
2999 2998 2997 2996 2996 2995 2994 2993 2992 2992 2991 2990 2989 2988 2988 2987 2986 2985 2985 2984 2983 2982 2981 2981 2980 2979 2978 2977 2976 2975 2974 2973 2972 2971 2970 2969 2968 2967 2966 2966 2964 2963 2962 2961 2960 2959 2957 2956 2956 2955 2954 2953 2951 2950 2949 2948 2946 2946 2944 2944 2943 2942 2941 2940 2939 2938 2937 2936 2936
2998 2997 2996 2996 2995 2994 2993 2993 2992 2991 2991 2990 2989 2988 2987 2986 2986 2985 2984 2983 2982 2981 2980 2980 2979 2978 2977 2976 2975 2974 2973 2972 2971 2970 2969 2968 2967 2966 2965 2964 2963 2961 2960 2959 2958 2957 2956 2955 2954 2952 2951 2950 2949 2948 2946 2945 2943 2942 2941 2939 2938 2937 2936 2935 2934 2933 2933 2932 2932
2997 2996 2996 2995 2994 2994 2993 2992 2991 2991 2990 2989 2988 2987 2987 2986 2985 2984 2983 2982 2982 2981 2980 2979 2978 2977 2976 2975 2974 2973 2972 2971 2970 2969 2967 2966 2965 2964 2963 2962 2961 2960 2958 2957 2956 2955 2954 2953 2952 2951 2950 2949 2947 2946 2945 2944 2942 2941 2940 2938 2936 2935 2933 2931 2930 2928 2927 2926 2926
2997 2996 2995 2995 2994 2993 2992 2991 2991 2990 2990 2989 2988 2987 2986 2986 2985 2984 2983 2982 2981 2981 2980 2979 2978 2976 2976 2974 2973 2972 2971 2969 2968 2966 2965 2964 2963 2962 2961 2960 2958 2957 2956 2955 2954 2952 2951 2950 2949 2948 2947 2946 2945 2944 2943 2942 2941 2940 2939 2937 2936 2934 2933 2931 2929 2927 2925 2923 2921
2996 2996 2995 2994 2993 2993 2992 2991 2991 2990 2990 2989 2988 2987 2987 2986 2985 2984 2983 2982 2981 2980 2979 2977 2976 2975 2973 2972 2971 2970 2968 2967 2965 2964 2963 2961 2961 2959 2958 2957 2956 2955 2954 2953 2951 2950 2949 2948 2946 2945 2944 2943 2942 2941 2940 2939 2938 2937 2936 2935 2934 2933 2931 2930 2929 2927 2925 2923 2921